User: anonymous   Login
Location: Simi Valley
(34.2690°N, 118.7810°W)
Time: 20:29:42
(UTC-07:00)
Language:

Lacrosse 5 rocket - Orbit

View from above orbital plane
View from above orbital plane
View from above satellite
View from above satellite

Ground track
Ground track

The orbit data is extracted from the following two-line orbital elements,

1 28647U 05016B   17084.79970611 0.00000600  00000-0  34680-4 0    03
2 28647  56.9980 354.0687 0130421 174.4773 185.5226 15.04847279    09
Epoch (UTC): 25 March 2017 19:11:34
Eccentricity: 0.0130421
inclination: 56.9980°
perigee height: 461 km
apogee height: 642 km
right ascension of ascending node: 354.0687°
argument of perigee: 174.4773°
revolutions per day: 15.04847279
mean anomaly at epoch: 185.5226°
orbit number at epoch: 0

The dashed part of the orbit path shows where the satellite is in the earth's shadow,  

DLR